[[{"header":{"parameterUnit":"m.s-1","parameterCategory":1,"la1":30.2991,"la2":30.254,"lo1":-89.0895,"lo2":-89.0444,"dy":0.0017,"dx":0.0017,"nx":28,"ny":28,"refTime":"2025-07-21T21:00:00:Z","depth":0,"parameterNumber":2,"parameterNumberName":"U-component_of_WINDS"},"data":[0,0,0,0,0,0,0,0,0,0,0,0,0,0,0,0,0,0,0,0,0,0,0,0,0,0,0,0,0,0,0,0,0,0,0,0,0,0,0,0,0,0,0,0,0,0,0,0,0,0,0,0,0,0,0,0,0,0,4.293,4.2931,0,4.3085,4.3087,4.3089,4.3045,4.3042,4.3039,4.3036,4.3197,4.3204,4.3211,0,0,0,0,0,0,0,0,0,0,0,0,0,4.2595,4.2601,4.293,4.2931,4.2933,4.3085,4.3087,4.3089,4.3046,4.3042,4.3038,4.3034,4.3195,4.3203,4.3212,0,0,0,0,0,0,0,0,0,0,0,0,0,4.2744,4.2603,4.2929,4.293,4.2931,4.3085,4.3087,4.309,4.3047,4.3042,4.3037,4.3033,4.3192,4.3203,4.3213,4.3376,0,0,4.3247,4.3251,0,0,0,0,0,0,0,0,4.2736,4.2757,4.2928,4.293,4.2932,4.3041,4.3028,4.3186,4.3048,4.3003,4.3036,4.303,4.3149,4.3163,4.3203,4.3384,4.339,4.3248,4.3254,4.3259,4.3262,0,0,0,0,0,0,0,4.2726,4.275,4.2991,4.293,4.2933,4.2923,4.2939,4.3058,4.3101,4.3006,4.3004,4.3023,4.315,4.3193,4.3207,4.3393,4.3247,4.3257,4.3264,4.3268,4.3712,4.3718,0,0,0,0,0,0,4.2713,4.2741,4.2986,4.2996,4.282,4.2932,4.295,4.3011,4.31,4.3108,4.3027,4.302,4.3176,4.3194,4.3212,4.3407,4.3259,4.3269,4.3275,4.3707,4.3714,4.3719,0,0,0,0,0,0,4.2706,4.2736,4.298,4.2868,4.2898,4.2943,4.3012,4.3017,4.306,4.3115,4.3122,4.3063,4.3173,4.3197,4.3335,4.3412,4.3274,4.3284,4.3701,4.3709,4.3717,4.3798,0,0,0,0,0,0,4.2697,4.2733,4.2796,4.287,4.2904,4.31,4.3016,4.3023,4.3078,4.3071,4.3151,4.3159,4.3171,4.3319,4.3346,4.3424,4.3292,4.3694,4.3705,4.3714,4.3789,4.3808,4.3824,0,0,0,0,0,4.2685,4.2813,4.2799,4.2829,4.2983,4.3105,4.3125,4.3136,4.3085,4.3147,4.3182,4.3157,4.3399,4.3333,4.3363,4.3446,4.369,4.3702,4.3713,4.3781,4.3804,4.3824,0,0,0,0,0,0,4.2748,4.2823,4.2808,4.2964,4.3028,4.3097,4.3177,4.316,4.3241,4.3231,4.3242,4.326,4.3401,4.3438,4.3363,4.3607,4.3537,4.3555,4.3578,4.36,4.3618,4.3605,4.3301,0,0,0,0,0,4.278,4.2872,4.2933,4.3064,4.3097,4.3132,4.3185,4.3188,4.3255,4.3282,4.3328,4.3395,4.3485,4.3545,4.3632,4.3794,4.381,4.3866,4.3883,4.3898,4.3913,4.3999,4.4024,4.3758,4.3758,4.3758,0,0,4.2847,4.2899,4.2957,4.3078,4.3128,4.3223,4.3155,4.3259,4.3329,4.3298,4.3431,4.3467,4.3542,4.3692,4.376,4.3727,4.399,4.3913,4.3924,4.3931,4.4014,4.4039,4.4062,4.3766,4.3765,4.3764,0,0,4.3017,4.3066,4.318,4.3232,4.3308,4.333,4.3357,4.3429,4.3451,4.3584,4.3562,4.3647,4.3804,4.3857,4.3905,4.4095,4.4073,4.4123,4.4215,4.4299,4.432,4.4339,4.4404,4.4428,4.4138,4.4139,4.4139,0,4.309,4.3232,4.3241,4.3347,4.34,4.3376,4.3491,4.354,4.3642,4.3679,4.364,4.3835,4.3885,4.4046,4.4092,4.4132,4.4163,4.4113,4.4316,4.4335,4.4353,4.4415,4.444,4.4144,4.4143,4.4143,4.4142,0,4.3318,4.3417,4.35,4.3597,4.366,4.377,4.3795,4.3858,4.3855,4.3881,4.4016,4.4074,4.4172,4.4211,4.421,4.4372,4.4348,4.4313,4.4242,4.4383,4.4442,4.4467,4.4152,4.415,4.4148,4.4147,0,0,4.3532,4.3631,4.3661,4.3704,4.3787,4.3863,4.3972,4.4066,4.4119,4.419,4.428,4.4413,4.4381,4.4435,4.444,4.4514,4.4658,4.4469,4.4471,4.4501,4.4839,4.4863,4.4891,4.4645,4.465,4.4653,4.4831,0,4.3707,4.3897,4.3908,4.408,4.4171,4.4149,4.4243,4.4304,4.4331,4.4412,4.4442,4.4535,4.4486,4.4518,4.4591,4.4625,4.4726,4.4613,4.4729,4.4733,4.4708,4.4922,4.4949,4.5114,4.4855,4.4859,4.4862,0,4.3937,4.4014,4.4195,4.4262,4.4301,4.4385,4.4472,4.455,4.4618,4.4632,4.4693,4.4686,4.4797,4.4724,4.4876,4.4799,4.4847,4.4871,4.4878,4.4888,4.4804,4.4936,4.5168,4.5192,4.4899,4.4896,4.4893,0,4.4072,4.4221,4.4348,4.4386,4.4468,4.4528,4.4565,4.4628,4.4684,4.476,4.4796,4.4884,4.4932,4.5001,4.5019,4.4964,4.517,4.5099,4.5185,4.5184,4.5228,4.5225,4.5468,4.5262,4.5262,4.5261,4.5261,0,4.4266,4.4378,4.4409,4.4487,4.4611,4.4622,4.4744,4.4778,4.4834,4.4918,4.4905,4.4984,4.5004,4.5087,4.5102,4.5224,4.5247,4.5261,4.5263,4.5261,4.5259,4.5292,4.528,4.5268,4.5267,4.5265,4.5264,0,4.4438,4.4463,4.46,4.4667,4.4686,4.4774,4.4831,4.4906,4.4931,4.5037,4.5063,4.5102,4.5199,4.5224,4.534,4.535,4.5494,4.5487,4.5471,4.547,4.5554,4.5545,4.5826,4.5862,4.5634,4.5636,4.5638,0,4.4559,4.4643,4.4719,4.4773,4.4813,4.4902,4.4958,4.4973,4.5032,4.5115,4.5179,4.5274,4.535,4.5506,4.5545,4.5634,4.5627,4.5719,4.564,4.5635,4.5626,4.562,4.5628,4.5734,4.5736,4.5738,4.574,0,4.477,4.4778,4.4859,4.4945,4.5012,4.508,4.5146,4.5192,4.5215,4.5282,4.538,4.5439,4.5557,4.5651,4.574,4.5778,4.5763,4.5765,4.5789,4.5787,4.5773,4.5779,4.551,4.5758,4.5756,4.5755,4.5754,4.5753,4.4919,4.4992,4.5056,4.5147,4.5197,4.5258,4.5331,4.5365,4.5446,4.5542,4.5546,4.5653,4.5718,4.5835,4.5879,4.5962,4.5934,4.597,4.5978,4.5986,4.5992,4.5761,4.5978,4.5978,4.5977,4.5977,4.5977,0,4.5128,4.5167,4.5251,4.5342,4.5413,4.5392,4.5463,4.5523,4.5617,4.5678,4.5753,4.5865,4.5956,4.6002,4.6092,4.615,4.6145,4.6173,4.6168,4.6177,4.6013,4.5982,4.6175,4.6175,4.6175,4.6175,4.6175,4.6175,4.5245,4.5367,4.5383,4.553,4.5569,4.5672,4.5714,4.577,4.5819,4.5945,4.602,4.6049,4.6104,4.6198,4.628,4.6291,4.6324,4.6355,4.6363,4.6209,4.6189,4.6169,4.614,4.6363,4.6363,4.6519,4.6521,4.6522]},{"header":{"parameterUnit":"m.s-1","parameterCategory":1,"la1":30.2991,"la2":30.254,"lo1":-89.0895,"lo2":-89.0444,"dy":0.0017,"dx":0.0017,"nx":28,"ny":28,"refTime":"2025-07-21T21:00:00:Z","depth":0,"parameterNumber":3,"parameterNumberName":"V-component_of_WINDS"},"data":[0,0,0,0,0,0,0,0,0,0,0,0,0,0,0,0,0,0,0,0,0,0,0,0,0,0,0,0,0,0,0,0,0,0,0,0,0,0,0,0,0,0,0,0,0,0,0,0,0,0,0,0,0,0,0,0,0,0,2.1824,2.1824,0,2.1829,2.1829,2.1829,2.1788,2.1787,2.1786,2.1785,2.179,2.1791,2.1792,0,0,0,0,0,0,0,0,0,0,0,0,0,2.1778,2.1779,2.1824,2.1824,2.1824,2.1829,2.1829,2.1829,2.1788,2.1787,2.1786,2.1784,2.179,2.1791,2.1793,0,0,0,0,0,0,0,0,0,0,0,0,0,2.1792,2.178,2.1824,2.1804,2.1803,2.1829,2.1829,2.1829,2.1789,2.1787,2.1785,2.1784,2.1789,2.1791,2.1793,2.1838,0,0,2.1798,2.1799,0,0,0,0,0,0,0,0,2.1791,2.1794,2.1807,2.1806,2.1804,2.1806,2.1815,2.1832,2.1789,2.1794,2.1785,2.1783,2.1797,2.1798,2.1803,2.1838,2.1838,2.1798,2.1799,2.18,2.1801,0,0,0,0,0,0,0,2.1791,2.1793,2.1826,2.1807,2.1805,2.1795,2.1795,2.1818,2.1805,2.1793,2.1791,2.1792,2.1796,2.1801,2.1802,2.1838,2.1798,2.18,2.1801,2.1802,2.1909,2.1911,0,0,0,0,0,0,2.1792,2.1793,2.1825,2.1826,2.1793,2.1797,2.1797,2.1807,2.1804,2.1802,2.1793,2.179,2.1799,2.18,2.1802,2.1854,2.18,2.1802,2.1803,2.1908,2.191,2.1912,0,0,0,0,0,0,2.1791,2.1796,2.1825,2.1809,2.1811,2.18,2.1811,2.1808,2.1813,2.1804,2.1802,2.1801,2.1797,2.18,2.1829,2.1853,2.1803,2.1804,2.1905,2.1908,2.1911,2.1958,0,0,0,0,0,0,2.179,2.1795,2.1813,2.1809,2.1813,2.1852,2.1813,2.1809,2.1816,2.1812,2.1811,2.1809,2.1796,2.1826,2.1831,2.1855,2.1806,2.1903,2.1907,2.191,2.1954,2.1962,2.1968,0,0,0,0,0,2.1789,2.1826,2.1814,2.1818,2.1834,2.1854,2.1855,2.184,2.1819,2.1836,2.183,2.1809,2.185,2.183,2.1834,2.1859,2.1902,2.1906,2.191,2.1951,2.196,2.1968,0,0,0,0,0,0,2.1833,2.1825,2.1812,2.1849,2.1852,2.1847,2.1868,2.1851,2.186,2.1856,2.1836,2.1836,2.1868,2.1867,2.1844,2.1902,2.1872,2.1877,2.1902,2.1911,2.1918,2.1917,2.1807,0,0,0,0,0,2.1847,2.1864,2.1856,2.189,2.1892,2.188,2.1888,2.1875,2.1878,2.1879,2.1875,2.1879,2.1892,2.1901,2.1913,2.1954,2.1952,2.1973,2.198,2.1986,2.1991,2.2011,2.202,2.1925,2.1925,2.1925,0,0,2.1876,2.1874,2.1886,2.1899,2.19,2.1917,2.1881,2.1901,2.1914,2.1882,2.1909,2.1906,2.1909,2.1943,2.1958,2.1943,2.2017,2.1991,2.1996,2.1997,2.2016,2.2025,2.2033,2.1928,2.1927,2.1927,0,0,2.1938,2.1939,2.1966,2.1968,2.197,2.1961,2.1968,2.1965,2.1962,2.1988,2.1965,2.1979,2.2003,2.2005,2.201,2.2071,2.2053,2.2076,2.2113,2.2133,2.2141,2.2147,2.2168,2.2176,2.2081,2.2081,2.2081,0,2.1975,2.2,2.1983,2.2004,2.201,2.1982,2.2009,2.2011,2.2017,2.2022,2.2005,2.2033,2.2033,2.2067,2.2082,2.2087,2.2093,2.2076,2.2141,2.2147,2.2153,2.2173,2.2181,2.2083,2.2083,2.2083,2.2083,0,2.2044,2.2061,2.2083,2.2089,2.2097,2.2122,2.2108,2.2118,2.2105,2.2098,2.2125,2.2124,2.2134,2.2142,2.2129,2.2174,2.2164,2.2144,2.2114,2.2165,2.2184,2.2191,2.2087,2.2086,2.2086,2.2085,0,0,2.2134,2.2129,2.2137,2.2139,2.2139,2.2152,2.2175,2.2185,2.2194,2.2199,2.2217,2.2237,2.2219,2.2224,2.2211,2.2229,2.2277,2.2207,2.2206,2.2219,2.2325,2.2339,2.2348,2.2264,2.2266,2.2267,2.2324,0,2.2193,2.2232,2.2216,2.2256,2.2272,2.2245,2.2264,2.2266,2.226,2.2272,2.2266,2.228,2.2255,2.2258,2.2274,2.2267,2.2297,2.2263,2.228,2.2281,2.228,2.2358,2.2373,2.2427,2.2331,2.2332,2.2333,0,2.2268,2.2275,2.2316,2.2312,2.2318,2.2336,2.2344,2.2356,2.2357,2.2351,2.2357,2.234,2.2361,2.2331,2.236,2.2337,2.2343,2.2341,2.2343,2.2343,2.231,2.236,2.2444,2.2452,2.2345,2.2344,2.2343,0,2.2329,2.2349,2.2375,2.2378,2.2374,2.2387,2.2386,2.2386,2.2392,2.2399,2.2403,2.2412,2.2417,2.2425,2.2411,2.239,2.2441,2.241,2.2437,2.2437,2.2448,2.2448,2.2534,2.2454,2.2454,2.2454,2.2453,0,2.2396,2.2422,2.2402,2.2419,2.2447,2.2429,2.2457,2.2453,2.2452,2.2467,2.2445,2.2459,2.2441,2.2453,2.2443,2.2468,2.247,2.2466,2.2463,2.2467,2.2468,2.2471,2.2466,2.2456,2.2455,2.2455,2.2454,0,2.2468,2.2456,2.2483,2.2477,2.2476,2.2497,2.2492,2.2506,2.2498,2.2518,2.2521,2.2509,2.2522,2.2509,2.2522,2.2515,2.2548,2.254,2.2548,2.2545,2.2572,2.2569,2.2663,2.2674,2.2587,2.2588,2.2589,0,2.2512,2.2531,2.2527,2.2535,2.2535,2.2549,2.2555,2.2538,2.2546,2.2548,2.2562,2.2574,2.2582,2.2605,2.2597,2.2607,2.2598,2.263,2.2599,2.2603,2.2597,2.2596,2.2598,2.2636,2.2637,2.2638,2.2639,0,2.259,2.2583,2.2593,2.2601,2.261,2.2615,2.2619,2.2627,2.2609,2.2619,2.2632,2.2639,2.2651,2.2663,2.267,2.2669,2.2651,2.2649,2.2655,2.266,2.2663,2.2661,2.2564,2.2646,2.2646,2.2645,2.2645,2.2644,2.2649,2.2664,2.2663,2.2675,2.2676,2.268,2.2693,2.2686,2.2697,2.2706,2.2695,2.2711,2.2711,2.2719,2.272,2.2732,2.2718,2.2728,2.273,2.2733,2.2736,2.2662,2.2733,2.2733,2.2733,2.2733,2.2732,0,2.2725,2.2723,2.2734,2.274,2.2749,2.2731,2.2734,2.2743,2.2757,2.2759,2.2767,2.2782,2.2793,2.2786,2.2795,2.2806,2.2798,2.2809,2.2807,2.2807,2.2748,2.2741,2.2815,2.2815,2.2815,2.2815,2.2815,2.2815,2.2766,2.279,2.2783,2.2807,2.2805,2.282,2.2823,2.2827,2.2827,2.2845,2.2854,2.2849,2.2847,2.2855,2.2864,2.2862,2.2866,2.288,2.2875,2.282,2.2811,2.2804,2.2797,2.2881,2.2881,2.2932,2.2933,2.2933]}]]